Weather History for VDSR - August, 2014

Change the Weather History Date:

Sunday, August 10, 2014

  Actual Average Record
Temperature  
Mean Temperature 86 °F -  
Max Temperature 93 °F - - ()
Min Temperature 80 °F - - ()
Cooling Degree Days 22    
Growing Degree Days 36 (Base 50)    
Moisture  
Dew Point 73 °F    
Average Humidity 64    
Maximum Humidity 84    
Minimum Humidity 46    
Precipitation  
Precipitation 0.00 in - - ()
Sea Level Pressure  
Sea Level Pressure 29.77 in    
Wind  
Wind Speed 5 mph ()    
Max Wind Speed 12 mph    
Max Gust Speed -    
Visibility 6.1 miles    
Events      
T = Trace of Precipitation, MM = Missing Value Source: Averaged Metar Reports

Daily Weather History Graph

Daily Weather History Graph

Search for Another Location

Airport or City:

Trip Planner

Search our weather history database for the weather conditions in past years. The results will help you decide how hot, cold, wet, or windy it might be!

Date:

Astronomy

Aug. 10, 2014 Rise Set
Actual Time 5:51 AM ICT 6:28 PM ICT
Civil Twilight 5:29 AM ICT 6:50 PM ICT
Nautical Twilight 5:02 AM ICT 7:16 PM ICT
Astronomical Twilight 4:36 AM ICT 7:43 PM ICT
Moon 5:59 PM ICT (8/10) 5:01 AM ICT (8/10)
Length of Visible Light 13h 21m
Length of Day
12h 37m
Full, 100% of the Moon is Illuminated
Aug 10
Full
Aug 11
Full
Aug 17
Last Quarter
Aug 25
New
Sep 2
First Quarter

Hourly Weather History & Observations

Time (ICT) Temp. Heat Index Dew Point Humidity Pressure Visibility Wind Dir Wind Speed Gust Speed Precip Events Conditions
12:00 AM 80.6 °F 84.6 °F 71.6 °F 74% 29.83 in 6.2 mi WSW 4.6 mph - N/A   Scattered Clouds
12:30 AM 80.6 °F 84.6 °F 71.6 °F 74% 29.83 in 6.2 mi WSW 5.8 mph - N/A   Scattered Clouds
1:00 AM 80.6 °F 84.6 °F 71.6 °F 74% 29.83 in 6.2 mi WSW 5.8 mph - N/A   Scattered Clouds
7:00 AM 80.6 °F 86.2 °F 75.2 °F 84% 29.80 in 6.2 mi Variable 1.2 mph - N/A   Scattered Clouds
7:30 AM 80.6 °F 86.2 °F 75.2 °F 84% 29.80 in 6.2 mi Variable 1.2 mph - N/A   Scattered Clouds
8:00 AM 82.4 °F 89.5 °F 75.2 °F 79% 29.83 in 6.2 mi Variable 2.3 mph - N/A   Scattered Clouds
8:30 AM 84.2 °F 92.3 °F 75.2 °F 74% 29.83 in 6.2 mi Variable 3.5 mph - N/A   Scattered Clouds
9:00 AM 84.2 °F 92.3 °F 75.2 °F 74% 29.83 in 6.2 mi Variable 2.3 mph - N/A   Scattered Clouds
9:30 AM 86.0 °F 95.1 °F 75.2 °F 70% 29.83 in 6.2 mi WSW 4.6 mph - N/A   Scattered Clouds
10:00 AM 87.8 °F 97.6 °F 75.2 °F 66% 29.83 in 6.2 mi West 6.9 mph - N/A   Scattered Clouds
10:30 AM 87.8 °F 97.6 °F 75.2 °F 66% 29.83 in 6.2 mi WNW 6.9 mph - N/A   Scattered Clouds
11:00 AM 89.6 °F 98.2 °F 73.4 °F 59% 29.83 in 6.2 mi West 8.1 mph - N/A   Scattered Clouds
11:30 AM 89.6 °F 98.2 °F 73.4 °F 59% 29.80 in 6.2 mi West 8.1 mph - N/A   Scattered Clouds
12:00 PM 89.6 °F 99.8 °F 75.2 °F 62% 29.80 in 6.2 mi West 8.1 mph - N/A   Scattered Clouds
12:30 PM 91.4 °F 100.1 °F 73.4 °F 55% 29.77 in 6.2 mi West 8.1 mph - N/A   Scattered Clouds
1:00 PM 91.4 °F 98.4 °F 71.6 °F 52% 29.77 in 6.2 mi West 8.1 mph - N/A   Scattered Clouds
1:30 PM 93.2 °F 100.5 °F 71.6 °F 49% 29.77 in 6.2 mi West 9.2 mph - N/A   Scattered Clouds
2:00 PM 93.2 °F 100.5 °F 71.6 °F 49% 29.74 in 6.2 mi WSW 10.4 mph - N/A   Scattered Clouds
2:30 PM 93.2 °F 98.8 °F 69.8 °F 46% 29.74 in 6.2 mi West 11.5 mph - N/A   Scattered Clouds
3:00 PM 93.2 °F 98.8 °F 69.8 °F 46% 29.74 in 6.2 mi WNW 10.4 mph - N/A   Scattered Clouds
3:30 PM 93.2 °F 98.8 °F 69.8 °F 46% 29.71 in 6.2 mi West 9.2 mph - N/A   Scattered Clouds
4:00 PM 93.2 °F 98.8 °F 69.8 °F 46% 29.71 in 6.2 mi West 11.5 mph - N/A   Scattered Clouds
4:30 PM 91.4 °F 96.8 °F 69.8 °F 49% 29.71 in 6.2 mi West 8.1 mph - N/A   Scattered Clouds
5:00 PM 91.4 °F 98.4 °F 71.6 °F 52% 29.71 in 6.2 mi West 6.9 mph - N/A   Scattered Clouds
5:30 PM 91.4 °F 96.8 °F 69.8 °F 49% 29.71 in 6.2 mi WNW 6.9 mph - N/A   Scattered Clouds
6:00 PM 89.6 °F 96.2 °F 71.6 °F 55% 29.71 in 6.2 mi WNW 5.8 mph - N/A   Scattered Clouds
6:30 PM 84.2 °F 92.3 °F 75.2 °F 74% 29.71 in 6.2 mi Variable 2.3 mph - N/A   Scattered Clouds
7:00 PM 86.0 °F 93.4 °F 73.4 °F 66% 29.71 in 6.2 mi Variable 2.3 mph - N/A   Partly Cloudy
7:30 PM 86.0 °F 93.4 °F 73.4 °F 66% 29.74 in 6.2 mi Variable 2.3 mph - N/A   Scattered Clouds
8:00 PM 86.0 °F 93.4 °F 73.4 °F 66% 29.74 in 6.2 mi Variable 2.3 mph - N/A   Scattered Clouds
8:30 PM 86.0 °F 93.4 °F 73.4 °F 66% 29.77 in 6.2 mi WSW 5.8 mph - N/A   Partly Cloudy
9:00 PM 86.0 °F 93.4 °F 73.4 °F 66% 29.77 in 6.2 mi WSW 5.8 mph - N/A   Partly Cloudy
9:30 PM 82.4 °F 87.2 °F 71.6 °F 70% 29.77 in 5.6 mi WSW 5.8 mph - N/A   Unknown
10:00 PM 82.4 °F 87.2 °F 71.6 °F 70% 29.77 in 5.6 mi WSW 5.8 mph - N/A   Unknown
10:30 PM 82.4 °F 87.2 °F 71.6 °F 70% 29.77 in 5.6 mi WSW 5.8 mph - N/A   Unknown
11:00 PM 82.4 °F 87.2 °F 71.6 °F 70% 29.77 in 5.6 mi WSW 5.8 mph - N/A   Unknown
11:30 PM 80.6 °F 84.6 °F 71.6 °F 74% 29.77 in 5.6 mi WSW 5.8 mph - N/A   Unknown